Precipitable_Water
0.22 0.17 0.15 0.19 0.20 0.18 0.15 0.14 0.13 0.15 0.21 0.16 0.14 0.14 0.16 0.19 0.22 0.24 0.26 0.28 0.30 0.31 0.37 0.42 0.43 0.47 0.42 0.38 0.36 0.37 0.38 0.39 0.38 0.36 0.35 0.34 0.31 0.34 0.37 0.40 0.41 0.43 0.44 0.45
0.18 0.16 0.24 0.25 0.22 0.18 0.16 0.13 0.12 0.15 0.20 0.17 0.15 0.13 0.16 0.21 0.24 0.28 0.29 0.30 0.31 0.34 0.37 0.40 0.43 0.39 0.37 0.36 0.37 0.37 0.37 0.38 0.38 0.37 0.37 0.37 0.36 0.37 0.40 0.43 0.42 0.43 0.45 0.46
0.16 0.21 0.27 0.21 0.18 0.15 0.16 0.13 0.14 0.14 0.18 0.18 0.15 0.11 0.16 0.24 0.28 0.30 0.33 0.34 0.35 0.34 0.34 0.35 0.33 0.34 0.35 0.36 0.36 0.34 0.36 0.37 0.38 0.38 0.37 0.37 0.37 0.38 0.39 0.42 0.44 0.45 0.46 0.45
0.21 0.27 0.23 0.20 0.17 0.17 0.12 0.22 0.19 0.17 0.13 0.10 0.18 0.09 0.12 0.20 0.22 0.26 0.28 0.28 0.28 0.29 0.30 0.30 0.30 0.32 0.32 0.31 0.33 0.34 0.34 0.35 0.39 0.42 0.41 0.41 0.39 0.37 0.43 0.46 0.48 0.48 0.48 0.47
0.20 0.22 0.21 0.18 0.19 0.22 0.16 0.25 0.20 0.19 0.16 0.15 0.15 0.12 0.12 0.18 0.18 0.21 0.24 0.25 0.26 0.27 0.27 0.26 0.26 0.28 0.30 0.33 0.37 0.40 0.40 0.40 0.40 0.41 0.42 0.41 0.40 0.42 0.44 0.44 0.43 0.44 0.48 0.52
0.25 0.33 0.27 0.24 0.27 0.26 0.27 0.21 0.20 0.21 0.19 0.11 0.15 0.14 0.11 0.13 0.15 0.19 0.24 0.27 0.26 0.26 0.25 0.25 0.27 0.30 0.33 0.39 0.40 0.40 0.39 0.38 0.39 0.39 0.40 0.40 0.39 0.40 0.41 0.42 0.42 0.44 0.45 0.48
0.21 0.23 0.30 0.32 0.23 0.28 0.24 0.18 0.12 0.11 0.10 0.09 0.20 0.15 0.12 0.15 0.20 0.21 0.23 0.27 0.29 0.28 0.28 0.29 0.31 0.33 0.36 0.36 0.37 0.38 0.38 0.37 0.39 0.39 0.39 0.39 0.39 0.39 0.39 0.39 0.41 0.44 0.47 0.49
0.14 0.14 0.25 0.32 0.26 0.22 0.22 0.18 0.12 0.08 0.08 0.09 0.15 0.09 0.10 0.18 0.21 0.27 0.28 0.31 0.31 0.29 0.32 0.34 0.35 0.34 0.35 0.37 0.38 0.39 0.39 0.39 0.40 0.40 0.40 0.43 0.44 0.45 0.47 0.49 0.51 0.51 0.50 0.52
0.15 0.16 0.33 0.34 0.34 0.28 0.21 0.15 0.19 0.13 0.15 0.11 0.10 0.10 0.10 0.14 0.19 0.25 0.28 0.31 0.30 0.28 0.31 0.32 0.33 0.35 0.37 0.39 0.40 0.41 0.40 0.39 0.40 0.41 0.43 0.44 0.47 0.49 0.49 0.51 0.53 0.54 0.55 0.55
0.20 0.14 0.25 0.29 0.32 0.30 0.24 0.24 0.14 0.14 0.07 0.05 0.06 0.06 0.05 0.11 0.15 0.23 0.26 0.28 0.28 0.29 0.29 0.31 0.34 0.36 0.39 0.41 0.42 0.43 0.43 0.42 0.43 0.45 0.47 0.48 0.49 0.51 0.50 0.50 0.50 0.50 0.52 0.53
0.19 0.14 0.15 0.23 0.19 0.17 0.19 0.15 0.15 0.13 0.10 0.05 0.04 0.04 0.11 0.16 0.19 0.22 0.26 0.29 0.28 0.27 0.28 0.30 0.35 0.39 0.41 0.43 0.44 0.45 0.45 0.44 0.46 0.49 0.50 0.50 0.51 0.51 0.51 0.51 0.51 0.50 0.49 0.49
0.20 0.14 0.10 0.12 0.21 0.22 0.19 0.14 0.14 0.07 0.06 0.09 0.08 0.06 0.13 0.16 0.20 0.22 0.24 0.29 0.29 0.28 0.30 0.34 0.39 0.43 0.44 0.44 0.46 0.47 0.48 0.49 0.52 0.54 0.55 0.54 0.55 0.53 0.51 0.50 0.50 0.50 0.49 0.49
0.16 0.09 0.06 0.07 0.13 0.18 0.15 0.16 0.15 0.14 0.13 0.09 0.07 0.06 0.13 0.17 0.18 0.21 0.26 0.33 0.33 0.34 0.38 0.41 0.44 0.45 0.45 0.46 0.49 0.50 0.51 0.53 0.56 0.57 0.57 0.56 0.53 0.51 0.50 0.49 0.49 0.48 0.47 0.47
0.18 0.10 0.07 0.04 0.05 0.10 0.09 0.11 0.15 0.14 0.11 0.09 0.09 0.09 0.13 0.19 0.23 0.29 0.33 0.34 0.35 0.38 0.41 0.44 0.46 0.47 0.49 0.51 0.53 0.55 0.56 0.57 0.57 0.58 0.58 0.54 0.50 0.48 0.48 0.48 0.48 0.47 0.46 0.43
0.16 0.08 0.10 0.10 0.11 0.13 0.14 0.15 0.19 0.18 0.19 0.15 0.16 0.20 0.24 0.28 0.30 0.34 0.39 0.40 0.40 0.41 0.44 0.47 0.50 0.52 0.54 0.56 0.59 0.60 0.58 0.57 0.56 0.54 0.52 0.49 0.44 0.42 0.39 0.37 0.36 0.34 0.33 0.34
0.22 0.13 0.19 0.18 0.26 0.27 0.23 0.26 0.28 0.30 0.32 0.32 0.34 0.34 0.43 0.45 0.46 0.46 0.47 0.47 0.46 0.46 0.49 0.53 0.55 0.56 0.57 0.60 0.61 0.60 0.56 0.51 0.48 0.43 0.39 0.36 0.33 0.31 0.30 0.30 0.29 0.30 0.29 0.30
0.38 0.36 0.35 0.29 0.38 0.37 0.30 0.35 0.36 0.37 0.39 0.38 0.33 0.39 0.43 0.42 0.43 0.44 0.44 0.44 0.45 0.47 0.52 0.55 0.56 0.58 0.60 0.60 0.60 0.56 0.52 0.49 0.42 0.37 0.33 0.31 0.30 0.29 0.29 0.30 0.30 0.31 0.31 0.30
0.42 0.40 0.38 0.32 0.35 0.23 0.35 0.43 0.43 0.40 0.42 0.43 0.42 0.42 0.43 0.44 0.45 0.45 0.46 0.45 0.45 0.47 0.49 0.52 0.55 0.57 0.58 0.59 0.58 0.55 0.50 0.43 0.38 0.33 0.31 0.31 0.31 0.30 0.30 0.29 0.29 0.29 0.30 0.29
0.45 0.38 0.31 0.28 0.27 0.31 0.35 0.37 0.35 0.34 0.33 0.40 0.40 0.42 0.44 0.45 0.44 0.44 0.50 0.52 0.51 0.53 0.56 0.57 0.59 0.59 0.60 0.60 0.59 0.53 0.47 0.43 0.39 0.36 0.33 0.32 0.32 0.30 0.29 0.27 0.26 0.27 0.26 0.24
0.42 0.42 0.34 0.32 0.27 0.22 0.34 0.39 0.43 0.40 0.30 0.43 0.44 0.43 0.42 0.44 0.36 0.42 0.51 0.54 0.55 0.57 0.59 0.59 0.60 0.60 0.60 0.60 0.59 0.53 0.47 0.44 0.42 0.39 0.35 0.34 0.32 0.29 0.28 0.28 0.25 0.23 0.22 0.21
0.32 0.34 0.30 0.31 0.29 0.31 0.41 0.43 0.44 0.29 0.32 0.46 0.47 0.46 0.46 0.43 0.47 0.50 0.53 0.52 0.54 0.56 0.58 0.60 0.60 0.58 0.58 0.58 0.54 0.47 0.44 0.42 0.42 0.39 0.34 0.32 0.30 0.29 0.27 0.24 0.23 0.22 0.22 0.22
0.32 0.31 0.31 0.33 0.29 0.25 0.45 0.41 0.35 0.41 0.47 0.48 0.49 0.50 0.48 0.49 0.50 0.50 0.51 0.51 0.53 0.55 0.56 0.56 0.55 0.55 0.54 0.51 0.46 0.42 0.39 0.40 0.36 0.32 0.29 0.28 0.26 0.25 0.24 0.23 0.22 0.22 0.22 0.21
0.32 0.37 0.34 0.36 0.36 0.47 0.52 0.50 0.53 0.56 0.53 0.54 0.53 0.52 0.49 0.47 0.46 0.46 0.45 0.45 0.47 0.51 0.52 0.51 0.47 0.46 0.45 0.44 0.41 0.37 0.36 0.34 0.31 0.28 0.26 0.26 0.25 0.24 0.23 0.22 0.22 0.21 0.21 0.19
0.40 0.45 0.39 0.40 0.43 0.46 0.51 0.55 0.54 0.52 0.49 0.48 0.48 0.46 0.46 0.42 0.40 0.38 0.39 0.40 0.42 0.42 0.41 0.41 0.40 0.38 0.36 0.34 0.32 0.30 0.28 0.28 0.26 0.23 0.22 0.22 0.21 0.20 0.21 0.21 0.21 0.20 0.18 0.17
0.42 0.44 0.41 0.40 0.45 0.47 0.48 0.47 0.47 0.47 0.47 0.44 0.43 0.41 0.38 0.37 0.36 0.37 0.36 0.36 0.36 0.35 0.33 0.32 0.27 0.24 0.22 0.22 0.22 0.21 0.22 0.23 0.22 0.22 0.22 0.22 0.23 0.22 0.21 0.21 0.20 0.20 0.20 0.20
0.45 0.41 0.36 0.34 0.41 0.39 0.37 0.41 0.43 0.37 0.34 0.34 0.32 0.31 0.31 0.31 0.30 0.32 0.31 0.31 0.28 0.26 0.27 0.25 0.26 0.25 0.25 0.25 0.25 0.25 0.27 0.25 0.22 0.20 0.19 0.19 0.19 0.19 0.19 0.18 0.17 0.19 0.20 0.21
Wind_Speed
16 14 14 14 12 12 11 10 11 12 12 14 15 18 20 21 19 19 19 18 17 18 18 17 16 16 16 16 17 17 18 18 18 17 16 13 14 14 14 14 15 16 17 17
14 14 14 13 11 10 9 10 11 13 13 14 16 21 19 18 17 18 17 17 16 16 15 15 15 15 15 16 16 17 16 15 14 13 12 12 14 14 14 15 17 18 18 18
14 14 12 12 9 9 9 10 11 13 15 14 18 18 16 16 16 17 18 17 16 15 14 14 14 14 14 15 16 14 12 12 11 11 12 13 15 15 16 17 19 20 21 20
11 11 11 10 9 10 11 11 11 12 13 15 15 19 18 17 18 18 18 16 15 14 14 14 14 13 13 13 11 10 11 12 12 13 14 16 17 18 18 20 21 22 22 21
10 10 9 8 10 10 11 11 12 13 13 15 16 16 20 18 19 18 17 15 14 13 13 13 12 12 11 10 10 11 12 13 14 15 17 18 20 20 21 22 23 24 23 22
9 9 8 9 9 9 11 11 12 13 14 15 16 14 19 16 16 15 15 15 13 12 12 11 10 9 9 10 11 12 14 15 17 18 19 21 22 23 24 24 23 22 22 21
8 8 9 10 10 11 11 12 14 15 13 15 15 16 19 18 16 15 14 14 13 12 11 10 9 9 10 12 13 15 16 18 20 21 22 23 24 25 25 24 22 22 22 21
9 9 10 11 11 12 11 12 11 15 14 17 16 18 17 16 15 15 14 13 12 11 10 10 10 11 12 14 15 17 19 20 21 22 23 24 24 23 23 22 22 22 22 22
8 9 10 10 11 11 12 12 13 12 16 16 16 18 18 15 14 13 13 13 13 12 12 12 12 13 14 15 17 19 21 22 22 23 23 23 23 23 22 22 22 22 23 23
9 8 11 11 12 12 13 12 12 13 13 15 15 16 15 13 13 12 12 13 13 14 14 14 14 15 17 18 20 21 22 22 23 23 23 23 23 23 23 23 23 23 24 24
9 10 11 11 13 13 12 13 12 12 13 13 15 15 12 13 14 14 15 15 15 16 16 17 17 18 19 21 22 22 23 23 23 24 23 23 24 24 24 24 24 24 25 25
10 10 11 11 12 12 13 13 13 12 14 13 13 17 14 14 13 13 16 18 18 19 20 20 20 21 22 23 24 24 23 24 24 24 24 25 25 25 25 25 25 25 26 26
10 10 10 12 11 13 14 14 13 13 13 15 13 15 13 16 18 20 21 21 21 22 22 23 23 23 24 24 25 24 24 25 25 25 26 27 28 27 27 27 27 27 27 27
9 11 12 13 13 12 14 15 16 15 15 17 20 23 22 24 25 24 25 25 25 25 24 24 24 25 25 25 25 25 26 26 28 29 30 31 30 30 30 30 30 30 30 30
9 11 12 15 16 16 17 18 18 21 22 21 23 25 28 25 27 27 27 26 26 26 26 26 26 25 25 26 26 28 29 30 31 32 33 33 33 32 32 32 32 32 32 33
13 14 14 17 17 19 21 22 24 26 25 28 29 31 29 27 24 25 27 26 26 26 26 26 26 26 27 28 29 30 31 33 34 35 35 35 34 34 34 34 34 34 34 35
14 14 14 16 16 19 21 20 19 19 19 19 21 24 23 23 25 25 25 25 25 25 25 26 27 28 29 30 32 33 35 36 37 37 37 37 36 36 36 36 36 36 37 37
13 13 15 17 17 16 17 14 15 17 20 24 25 23 26 28 26 25 24 23 22 22 24 26 27 29 32 33 35 36 38 39 39 40 39 39 39 39 39 39 40 40 40 40
17 16 17 18 18 23 22 20 20 19 20 21 22 25 26 25 23 21 21 23 25 26 28 30 32 34 36 38 39 40 41 41 41 41 41 41 41 42 42 42 42 42 42 41
16 18 19 19 21 22 21 21 23 24 25 25 24 24 24 24 23 25 28 30 32 32 33 35 37 39 40 42 42 43 43 43 44 44 44 44 44 44 44 44 44 43 43 43
18 20 24 25 26 28 27 27 27 24 25 26 25 26 28 28 30 34 36 37 37 37 38 39 41 42 43 43 44 44 45 45 46 46 45 45 45 45 45 44 44 45 45 45
21 21 23 23 25 29 27 25 24 26 29 30 32 33 35 37 38 40 41 41 41 41 41 42 43 43 44 44 45 45 46 47 46 45 45 45 45 45 45 46 46 46 47 47
26 26 25 26 26 26 28 28 30 32 35 37 39 41 41 41 41 42 42 41 40 41 41 42 43 44 45 44 44 45 46 46 46 46 46 46 47 47 47 47 47 47 47 48
30 29 29 29 29 28 29 32 34 36 38 39 40 41 41 41 41 41 41 41 41 41 42 42 43 43 43 43 43 44 45 46 46 47 47 47 47 47 47 47 48 48 49 49
29 28 30 33 33 33 33 33 35 36 36 37 39 39 41 41 42 42 42 42 42 41 41 41 42 42 43 44 44 45 46 46 47 48 48 49 49 49 49 49 49 50 50 51
31 33 33 34 32 32 35 35 35 36 37 38 39 40 41 41 43 42 43 42 41 42 41 42 43 44 45 45 46 46 46 46 47 48 49 49 49 50 51 52 53 52 54 54
Wind_Direction
185 181 191 199 208 210 210 224 238 248 259 268 267 272 277 285 285 291 295 294 290 287 289 288 287 288 291 294 297 300 303 304 304 304 303 302 303 302 298 298 301 304 304 305
183 187 198 204 207 211 226 234 250 258 264 271 279 281 282 283 286 289 292 294 292 288 287 286 286 288 291 293 297 301 304 308 308 308 308 308 308 305 302 301 302 304 304 303
181 192 202 205 216 222 239 240 253 259 276 274 285 281 282 283 287 289 292 291 289 287 285 285 286 289 292 295 299 301 304 310 313 313 312 310 310 307 305 304 304 304 303 301
180 200 203 211 222 236 239 250 257 270 279 275 290 281 284 285 285 287 287 286 284 283 283 284 286 288 293 297 298 300 305 310 311 310 310 311 311 309 306 305 305 304 303 299
201 204 210 220 236 246 245 256 265 271 276 283 289 286 286 292 286 281 279 279 280 280 281 283 285 286 291 294 298 302 304 308 310 309 308 309 310 309 308 308 306 305 301 299
194 210 224 230 242 251 245 264 276 278 279 283 286 285 290 288 286 280 277 274 275 276 279 282 281 281 286 294 301 304 306 307 309 309 309 309 309 308 308 308 307 307 305 301
218 232 238 241 249 260 264 276 281 286 285 275 285 289 283 288 286 280 268 267 270 271 274 275 276 279 287 295 301 304 306 307 308 309 308 308 308 308 306 306 305 305 306 304
218 252 247 258 258 257 269 268 265 271 279 284 288 282 288 289 283 279 269 265 266 265 267 270 275 283 290 295 300 304 307 308 309 310 309 309 309 309 307 306 305 304 302 302
230 247 253 259 263 267 267 272 272 278 285 288 284 289 292 285 286 278 265 261 261 261 264 270 277 284 290 296 300 304 307 308 309 310 311 312 312 311 309 308 307 306 304 302
242 253 260 264 265 274 270 265 280 282 280 283 287 289 284 297 279 273 266 261 262 264 267 271 278 285 291 296 300 304 305 306 307 309 311 311 311 311 310 309 308 306 304 303
249 258 264 266 261 260 270 272 278 274 276 276 289 286 279 283 283 270 266 266 267 267 269 272 278 284 289 296 300 303 304 305 306 308 309 310 311 311 310 310 309 307 306 305
262 259 262 268 270 268 267 264 265 272 273 278 281 284 283 283 282 273 274 274 272 272 273 273 276 282 288 294 298 300 302 304 305 306 307 308 309 309 309 309 308 308 307 306
256 270 277 282 279 274 268 266 269 274 278 269 273 281 287 286 285 283 282 278 275 274 274 274 276 281 287 292 296 298 300 302 304 305 306 306 307 306 305 305 306 306 306 306
267 266 261 262 269 271 270 269 266 268 275 274 273 283 282 284 285 284 284 281 277 275 273 274 277 281 286 290 294 296 299 301 302 303 304 304 304 304 303 303 303 303 303 303
272 272 273 277 274 275 274 273 268 265 270 272 287 278 285 286 285 283 285 281 277 274 273 273 276 280 284 288 292 294 297 299 301 301 302 302 301 301 300 300 300 301 301 301
276 276 276 281 280 274 277 272 270 270 274 279 281 286 292 294 288 289 288 285 280 275 274 274 277 280 285 288 291 294 296 298 299 300 300 299 299 299 299 299 299 299 299 300
277 279 286 285 290 293 289 281 271 277 276 277 280 288 296 296 296 294 292 289 284 279 275 274 277 281 285 288 291 293 295 297 297 298 298 297 297 297 297 297 297 297 298 298
276 281 285 288 294 285 288 292 283 278 285 281 289 293 297 296 294 293 293 292 287 282 278 278 280 283 287 289 290 293 294 295 296 296 296 295 295 295 295 295 295 296 296 296
278 279 285 285 283 289 289 292 292 287 291 293 291 295 297 298 293 294 296 295 291 286 283 283 284 286 287 289 291 293 294 294 295 294 294 293 293 293 293 294 294 294 294 294
277 278 275 282 283 284 290 291 292 287 284 291 292 295 296 296 290 288 294 294 292 287 285 285 286 287 288 290 290 291 291 293 293 293 293 292 292 292 292 292 293 292 292 292
283 280 272 275 281 285 286 288 290 286 289 289 291 292 292 290 287 289 291 291 290 287 286 286 287 288 289 290 289 290 291 292 292 292 291 291 291 291 291 291 291 292 292 291
280 279 280 280 280 284 292 290 289 287 290 290 290 291 290 289 290 290 291 290 290 288 287 287 287 287 289 290 290 289 291 292 292 291 291 291 291 291 291 290 291 291 291 291
285 280 282 275 281 284 289 289 289 290 290 290 290 291 291 291 291 292 291 291 290 289 288 288 288 288 289 291 290 290 291 292 292 291 291 291 291 291 291 290 290 291 291 290
284 281 280 284 284 282 285 287 288 289 289 290 291 291 291 291 292 293 292 292 291 290 289 289 289 289 290 291 292 291 292 292 291 291 291 291 291 291 291 291 290 290 290 290
283 284 284 283 284 285 283 289 290 291 292 292 292 292 292 292 292 292 292 291 291 291 291 291 291 291 291 292 293 293 293 292 291 291 291 291 291 291 291 291 291 290 290 289
283 284 283 285 285 285 286 289 290 292 292 293 293 293 294 293 293 292 292 292 291 291 291 291 291 292 292 292 293 294 293 293 292 292 292 292 292 291 291 291 290 290 289 289